• în Republica Moldova
  • Lista ţărilor
  • Pe 7 zile
  • Temperatura apei
  • Hartă satelitară
  • Meteo pe hartă
  • Widget-uri
  • user-avatar
    Intrare

    Meteo pe oră la Sydney

    Astăzi, 17 Iunie, Luni

    Timp Temperatura Precipitaţii Vânt Presiune Umiditate
    00:00 +11°C° 0.4 mm 4 m/s 763 mmHg 89%
    01:00 +10°C° 0.4 mm 5 m/s 763 mmHg 88%
    02:00 +10°C° 0.8 mm 5 m/s 763 mmHg 89%
    03:00 +10°C° 0.8 mm 6 m/s 763 mmHg 90%
    04:00 +10°C° 0 mm 5 m/s 762 mmHg 86%
    05:00 +10°C° 0.4 mm 5 m/s 763 mmHg 86%
    06:00 +10°C° 0.4 mm 5 m/s 763 mmHg 86%
    07:00 +10°C° 0.4 mm 5 m/s 763 mmHg 86%
    08:00 +12°C° 0.9 mm 5 m/s 763 mmHg 85%
    09:00 +13°C° 0.9 mm 6 m/s 763 mmHg 83%
    10:00 +13°C° 0 mm 6 m/s 764 mmHg 76%
    11:00 +14°C° 0.7 mm 6 m/s 763 mmHg 77%
    12:00 +14°C° 0.7 mm 6 m/s 763 mmHg 78%
    13:00 +15°C° 0.7 mm 6 m/s 763 mmHg 78%
    14:00 +15°C° 0.4 mm 6 m/s 763 mmHg 78%
    15:00 +15°C° 0.4 mm 6 m/s 763 mmHg 78%
    16:00 +15°C° 0.4 mm 6 m/s 763 mmHg 77%
    17:00 +14°C° 0.2 mm 5 m/s 763 mmHg 81%
    18:00 +13°C° 0.2 mm 5 m/s 764 mmHg 84%
    19:00 +12°C° 0.2 mm 4 m/s 764 mmHg 87%
    20:00 +12°C° 0.1 mm 4 m/s 764 mmHg 88%
    21:00 +12°C° 0.1 mm 4 m/s 764 mmHg 88%
    22:00 +12°C° 0.1 mm 4 m/s 764 mmHg 89%
    23:00 +12°C° 0.2 mm 4 m/s 764 mmHg 87%

    Mâine, 18 Iunie, Marţi

    Timp Temperatura Precipitaţii Vânt Presiune Umiditate
    00:00 +12°C° 0.2 mm 3 m/s 764 mmHg 84%
    01:00 +12°C° 0.2 mm 3 m/s 764 mmHg 82%
    02:00 +12°C° 0.1 mm 3 m/s 763 mmHg 82%
    03:00 +12°C° 0.1 mm 3 m/s 763 mmHg 83%
    04:00 +12°C° 0.1 mm 3 m/s 763 mmHg 84%
    05:00 +11°C° 0 mm 3 m/s 763 mmHg 85%
    06:00 +11°C° 0 mm 3 m/s 763 mmHg 86%
    07:00 +11°C° 0 mm 3 m/s 763 mmHg 87%
    08:00 +12°C° 0 mm 3 m/s 763 mmHg 80%
    09:00 +14°C° 0 mm 3 m/s 763 mmHg 74%
    10:00 +16°C° 0 mm 3 m/s 763 mmHg 68%
    11:00 +17°C° 0 mm 3 m/s 763 mmHg 62%
    12:00 +19°C° 0 mm 2 m/s 762 mmHg 56%
    13:00 +20°C° 0 mm 2 m/s 761 mmHg 50%
    14:00 +20°C° 0 mm 2 m/s 761 mmHg 51%
    15:00 +20°C° 0 mm 1 m/s 761 mmHg 53%
    16:00 +20°C° 0 mm 1 m/s 761 mmHg 54%
    17:00 +18°C° 0 mm 2 m/s 761 mmHg 56%
    18:00 +17°C° 0 mm 3 m/s 762 mmHg 57%
    19:00 +15°C° 0 mm 4 m/s 762 mmHg 59%
    20:00 +14°C° 0 mm 5 m/s 762 mmHg 59%
    21:00 +13°C° 0 mm 5 m/s 762 mmHg 59%
    22:00 +11°C° 0 mm 6 m/s 763 mmHg 60%
    23:00 +12°C° 0 mm 5 m/s 763 mmHg 63%

    Poimâine, 19 Iunie, Miercuri

    Timp Temperatura Precipitaţii Vânt Presiune Umiditate
    00:00 +10°C° 0 mm 5 m/s 763 mmHg 66%
    01:00 +9°C° 0 mm 5 m/s 763 mmHg 69%
    02:00 +9°C° 0 mm 5 m/s 763 mmHg 70%
    03:00 +8°C° 0 mm 5 m/s 763 mmHg 72%
    04:00 +8°C° 0 mm 5 m/s 763 mmHg 74%
    05:00 +8°C° 0.1 mm 5 m/s 764 mmHg 74%
    06:00 +8°C° 0.1 mm 5 m/s 764 mmHg 74%
    07:00 +8°C° 0.1 mm 5 m/s 765 mmHg 73%
    08:00 +9°C° 0.1 mm 5 m/s 765 mmHg 67%
    09:00 +12°C° 0.1 mm 5 m/s 765 mmHg 61%
    10:00 +13°C° 0.1 mm 5 m/s 765 mmHg 54%
    11:00 +14°C° 0 mm 5 m/s 765 mmHg 51%
    12:00 +15°C° 0 mm 5 m/s 765 mmHg 48%
    13:00 +15°C° 0 mm 5 m/s 764 mmHg 45%
    14:00 +15°C° 0 mm 5 m/s 764 mmHg 46%
    15:00 +14°C° 0 mm 5 m/s 764 mmHg 46%
    16:00 +14°C° 0 mm 5 m/s 765 mmHg 47%
    17:00 +13°C° 0 mm 5 m/s 765 mmHg 52%
    18:00 +12°C° 0 mm 5 m/s 766 mmHg 57%
    19:00 +10°C° 0 mm 5 m/s 766 mmHg 62%
    20:00 +11°C° 0 mm 4 m/s 766 mmHg 64%
    21:00 +10°C° 0 mm 4 m/s 767 mmHg 67%
    22:00 +8°C° 0 mm 4 m/s 767 mmHg 69%
    23:00 +8°C° 0 mm 4 m/s 767 mmHg 69%

    20 Iunie, Joi

    Timp Temperatura Precipitaţii Vânt Presiune Umiditate
    00:00 +9°C° 0 mm 3 m/s 767 mmHg 69%
    01:00 +9°C° 0 mm 3 m/s 766 mmHg 70%
    02:00 +9°C° 0.1 mm 3 m/s 766 mmHg 71%
    03:00 +9°C° 0.1 mm 3 m/s 766 mmHg 73%
    04:00 +8°C° 0.1 mm 3 m/s 766 mmHg 75%
    05:00 +7°C° 0.1 mm 4 m/s 766 mmHg 76%
    06:00 +7°C° 0.1 mm 4 m/s 767 mmHg 76%
    07:00 +7°C° 0.1 mm 4 m/s 767 mmHg 77%
    08:00 +8°C° 0.1 mm 4 m/s 767 mmHg 75%
    09:00 +10°C° 0.1 mm 4 m/s 766 mmHg 72%
    10:00 +10°C° 0.1 mm 3 m/s 766 mmHg 69%
    11:00 +11°C° 0.3 mm 3 m/s 766 mmHg 71%
    12:00 +11°C° 0.3 mm 3 m/s 765 mmHg 73%
    13:00 +11°C° 0.3 mm 3 m/s 765 mmHg 75%
    14:00 +11°C° 0.6 mm 3 m/s 764 mmHg 78%
    15:00 +12°C° 0.6 mm 2 m/s 764 mmHg 80%
    16:00 +12°C° 0.6 mm 2 m/s 764 mmHg 83%
    17:00 +10°C° 0.5 mm 2 m/s 764 mmHg 85%
    18:00 +9°C° 0.5 mm 3 m/s 764 mmHg 87%
    19:00 +9°C° 0.5 mm 3 m/s 765 mmHg 89%
    20:00 +8°C° 0.5 mm 4 m/s 765 mmHg 87%
    21:00 +8°C° 0.5 mm 5 m/s 765 mmHg 84%
    22:00 +8°C° 0.5 mm 6 m/s 765 mmHg 82%
    23:00 +8°C° 0 mm 6 m/s 764 mmHg 81%

    21 Iunie, Vineri

    Timp Temperatura Precipitaţii Vânt Presiune Umiditate
    00:00 +7°C° 0 mm 6 m/s 764 mmHg 81%
    01:00 +6°C° 0 mm 5 m/s 764 mmHg 80%
    02:00 +6°C° 0 mm 5 m/s 764 mmHg 79%
    03:00 +4°C° 0 mm 6 m/s 764 mmHg 79%
    04:00 +4°C° 0 mm 6 m/s 764 mmHg 78%
    05:00 +4°C° 0.2 mm 6 m/s 764 mmHg 77%
    06:00 +4°C° 0.2 mm 7 m/s 764 mmHg 77%
    07:00 +5°C° 0.2 mm 7 m/s 765 mmHg 76%
    08:00 +6°C° 0.3 mm 8 m/s 765 mmHg 69%
    09:00 +7°C° 0.3 mm 9 m/s 765 mmHg 62%
    10:00 +8°C° 0.3 mm 9 m/s 765 mmHg 55%
    11:00 +10°C° 0.6 mm 9 m/s 765 mmHg 53%
    12:00 +11°C° 0.6 mm 9 m/s 765 mmHg 50%
    13:00 +13°C° 0.6 mm 9 m/s 765 mmHg 47%
    14:00 +12°C° 0.8 mm 9 m/s 765 mmHg 52%
    15:00 +12°C° 0.8 mm 9 m/s 765 mmHg 56%
    16:00 +11°C° 0.8 mm 9 m/s 765 mmHg 60%
    17:00 +11°C° 0.5 mm 9 m/s 766 mmHg 63%
    18:00 +11°C° 0.5 mm 8 m/s 767 mmHg 66%
    19:00 +10°C° 0.5 mm 8 m/s 768 mmHg 70%
    20:00 +10°C° 0.5 mm 8 m/s 768 mmHg 69%
    21:00 +10°C° 0.5 mm 8 m/s 768 mmHg 69%
    22:00 +10°C° 0.5 mm 8 m/s 768 mmHg 68%
    23:00 +10°C° 0.3 mm 8 m/s 768 mmHg 68%

    22 Iunie, Sâmbătă

    Timp Temperatura Precipitaţii Vânt Presiune Umiditate
    00:00 +9°C° 0.3 mm 8 m/s 768 mmHg 67%
    01:00 +9°C° 0.3 mm 8 m/s 768 mmHg 67%
    02:00 +8°C° 0.1 mm 7 m/s 768 mmHg 68%
    03:00 +8°C° 0.1 mm 7 m/s 768 mmHg 70%
    04:00 +6°C° 0.1 mm 7 m/s 768 mmHg 71%
    05:00 +8°C° 0.4 mm 7 m/s 768 mmHg 70%
    06:00 +8°C° 0.4 mm 6 m/s 769 mmHg 69%
    07:00 +8°C° 0.4 mm 6 m/s 769 mmHg 68%
    08:00 +9°C° 0.5 mm 6 m/s 769 mmHg 68%
    09:00 +9°C° 0.5 mm 6 m/s 770 mmHg 68%
    10:00 +10°C° 0.5 mm 7 m/s 770 mmHg 68%
    11:00 +10°C° 0.3 mm 7 m/s 769 mmHg 67%
    12:00 +11°C° 0.3 mm 7 m/s 769 mmHg 65%
    13:00 +12°C° 0.3 mm 7 m/s 769 mmHg 64%
    14:00 +11°C° 0.9 mm 6 m/s 769 mmHg 70%
    15:00 +10°C° 0.9 mm 6 m/s 769 mmHg 75%
    16:00 +9°C° 0.9 mm 6 m/s 769 mmHg 81%
    17:00 +9°C° 0.9 mm 6 m/s 769 mmHg 80%
    18:00 +9°C° 0.9 mm 7 m/s 769 mmHg 79%
    19:00 +9°C° 0.9 mm 7 m/s 770 mmHg 78%
    20:00 +9°C° 0.8 mm 6 m/s 770 mmHg 79%
    21:00 +9°C° 0.8 mm 6 m/s 770 mmHg 80%
    22:00 +8°C° 0.8 mm 5 m/s 770 mmHg 82%
    23:00 +8°C° 1 mm 5 m/s 770 mmHg 82%
    Arată mai mult